SCP
0 0 0 1 1 1 1 0 0 0 0 0 0 0 0 0 0 0 0 0 0 0 0 0 0 0 0 0 0 0 0 0 0 0 0 0 0 0
1 0 1 0 1 1 1 1 0 0 0 0 0 0 0 0 0 0 0 0 0 0 0 0 0 0 0 0 0 0 0 0 0 0 0 0 0 0
1 1 0 1 1 1 1 2 0 0 0 0 0 0 0 0 0 0 0 0 0 0 0 0 0 0 0 0 0 0 0 0 0 0 0 0 0 0
1 1 1 1 1 1 1 1 1 0 0 0 0 0 0 0 0 0 0 0 0 0 0 0 0 0 0 0 0 0 0 0 0 0 0 0 0 0
1 1 1 1 1 1 1 1 2 1 0 0 0 0 0 0 0 0 0 0 0 0 0 0 0 0 0 0 0 0 0 0 0 0 0 0 0 0
1 1 1 1 1 1 1 1 1 2 1 0 0 0 0 0 0 0 0 0 0 0 0 0 0 0 0 0 0 0 0 0 0 0 0 0 0 0
1 1 1 0 0 0 1 1 1 2 1 0 0 0 0 0 0 0 0 0 0 0 0 0 0 0 0 0 0 0 0 0 0 0 0 0 0 0
2 1 1 0 0 0 0 1 2 3 0 0 0 0 0 0 0 0 0 0 0 0 0 0 0 0 0 0 0 0 0 0 0 0 0 0 0 0
2 3 2 2 1 1 0 0 1 1 0 0 0 0 0 0 0 0 0 0 0 0 0 0 0 0 0 0 0 0 0 0 0 0 0 0 0 0
3 3 3 2 2 1 1 0 0 0 0 0 0 0 0 0 0 0 0 0 0 0 0 0 0 0 0 0 0 0 0 0 0 0 0 0 0 0
5 4 4 3 2 1 0 0 0 0 0 0 0 0 0 0 0 0 0 0 0 0 0 0 0 0 0 0 0 0 0 0 0 0 0 0 0 0
3 2 2 2 0 0 0 0 0 0 0 0 0 0 0 0 0 0 0 0 0 0 0 0 0 0 0 0 0 0 0 0 0 0 0 0 0 0
3 1 1 0 0 0 0 0 0 0 0 0 0 0 0 0 0 0 0 0 0 0 0 0 0 0 0 0 0 0 0 0 0 0 0 0 0 0
1 0 0 0 0 0 0 0 0 0 0 0 0 0 0 0 0 0 0 0 0 0 0 0 0 0 0 0 0 0 0 0 0 0 0 0 0 0
0 0 0 0 0 0 0 0 0 0 0 0 0 0 0 0 0 0 0 0 0 0 0 0 0 0 0 0 0 0 0 0 0 0 0 0 0 0
0 0 0 0 0 0 0 0 0 0 0 0 0 0 0 0 0 0 0 0 0 0 0 0 0 0 0 0 0 0 0 0 0 0 0 0 0 0
0 0 0 0 0 0 0 0 0 0 0 0 0 0 0 0 0 0 0 0 0 0 0 0 0 0 0 0 0 0 0 0 0 0 0 0 0 0
0 0 0 0 0 0 0 0 0 0 0 0 0 0 0 0 0 0 0 0 0 0 0 0 0 0 0 0 0 0 0 0 0 0 0 0 0 0
0 0 0 0 0 0 0 0 0 0 0 0 0 0 0 0 0 0 0 0 0 0 0 0 0 0 0 0 0 0 0 0 0 0 0 0 0 0
0 0 0 0 0 0 0 0 0 0 0 0 0 0 0 0 0 0 0 0 0 0 0 0 0 0 0 0 0 0 0 0 0 0 0 0 0 0
0 0 0 0 0 0 0 0 0 0 0 0 0 0 0 0 0 0 0 0 0 0 0 0 0 0 0 0 0 0 0 0 0 0 0 0 0 0
0 0 0 0 0 0 0 0 0 0 0 0 0 0 0 0 0 0 0 0 0 0 0 0 0 0 0 0 0 0 0 0 0 0 0 0 0 0
0 0 0 0 0 0 0 0 0 0 0 0 0 0 0 0 0 0 0 0 0 0 0 0 0 0 0 0 0 0 0 0 0 0 0 0 0 0
Wind_Speed_500mb
89 85 88 71 73 79 70 68 68 57 62 60 54 62 69 75 74 76 75 72 71 66 56 47 38 33 30 26 23 21 18 17 18 20 22 22 21 18
98 93 93 92 82 73 77 76 76 74 68 72 67 58 58 76 76 80 83 80 75 74 63 55 44 36 34 29 26 23 18 17 16 17 17 18 18 12
102 101 99 99 98 97 77 82 82 84 82 64 63 60 58 74 80 86 86 76 75 72 66 61 50 38 36 32 29 23 19 17 14 14 13 11 8 8
108 105 105 98 100 100 100 92 90 90 88 83 82 82 72 76 78 84 82 76 73 72 70 66 57 43 38 35 31 25 21 16 13 9 8 5 3 8
104 106 106 101 101 100 100 100 96 92 86 88 94 92 79 85 80 86 82 81 74 71 73 67 52 41 38 34 36 29 25 16 12 7 4 2 2 6
99 101 101 102 103 102 101 102 96 93 93 97 95 93 91 93 89 91 86 87 82 72 70 64 53 46 40 40 43 35 28 18 13 10 8 7 6 5
100 102 101 102 100 100 101 100 100 95 100 103 103 100 97 100 103 99 95 89 81 77 65 64 55 50 46 46 49 40 31 22 18 15 14 11 6 3
100 102 103 104 105 104 103 103 100 106 112 112 115 113 108 104 103 106 103 98 87 78 57 63 61 52 49 50 51 42 34 27 23 21 19 14 11 10
97 99 102 106 107 105 106 104 105 108 118 113 115 117 109 107 102 104 107 109 102 83 69 71 65 59 51 54 57 46 40 34 30 26 23 20 16 15
95 94 95 94 98 99 101 105 108 112 117 119 114 97 83 88 91 94 102 100 89 72 68 77 68 62 64 63 57 51 46 39 34 32 27 23 21 19
99 95 98 98 96 95 97 96 107 113 116 115 113 104 91 86 83 88 94 96 88 88 81 69 70 72 68 65 57 51 47 42 40 34 29 25 23 22
104 105 105 104 102 96 92 92 97 105 116 113 105 97 98 89 80 70 76 94 99 86 94 86 74 77 63 73 65 60 53 50 44 39 32 28 27 24
101 107 110 108 109 103 94 93 87 87 105 112 107 106 99 89 84 74 74 81 100 98 91 98 85 77 67 43 73 67 60 54 49 43 38 34 30 25
103 105 104 102 101 99 91 91 86 86 85 109 115 112 104 93 85 79 77 82 91 92 83 60 81 81 79 65 42 65 66 60 53 49 42 37 33 28
88 93 90 84 90 90 89 91 90 90 87 102 116 115 104 89 83 84 85 88 88 84 75 67 66 58 59 67 65 50 63 62 57 51 44 39 32 30
80 89 89 80 83 89 93 99 98 94 94 99 109 105 98 92 88 93 94 94 93 86 76 70 54 55 58 69 64 53 48 49 51 52 43 37 33 31
91 88 98 98 94 96 98 101 103 100 99 101 105 106 101 96 95 99 101 102 102 95 87 70 63 59 56 58 60 58 49 48 45 39 44 39 36 33
83 90 95 104 101 106 102 104 106 105 102 102 102 100 98 98 100 106 107 109 106 98 89 86 77 64 55 51 55 54 49 49 47 42 41 39 38 35
68 79 86 90 111 111 111 113 113 111 107 105 103 99 98 101 108 113 110 106 96 97 91 77 77 75 71 63 54 50 50 52 48 44 40 39 34 33
44 59 70 77 87 97 103 116 117 116 113 106 101 97 98 103 111 112 110 102 101 97 89 81 82 82 76 70 65 61 55 49 47 41 41 38 38 39
32 42 56 59 67 77 91 93 100 119 119 115 106 99 95 93 96 99 97 101 103 97 90 86 84 76 65 54 51 58 61 55 46 39 38 41 42 39
36 30 39 44 44 51 60 73 85 103 103 103 92 85 88 84 90 92 98 102 100 91 81 80 71 63 58 60 59 56 57 61 56 45 42 43 36 33
36 43 28 29 32 34 33 51 59 78 98 71 73 75 74 78 82 84 93 91 87 78 82 73 61 60 63 64 57 50 48 52 52 51 46 41 39 38
Wind_Direction_500mb
234 235 226 224 232 230 229 235 237 238 240 241 244 239 232 236 240 244 245 249 251 251 249 253 253 256 260 261 263 273 285 306 316 327 332 327 333 336
239 236 238 233 229 230 229 235 239 243 244 251 253 252 246 238 241 243 246 243 245 244 241 245 244 249 254 253 255 264 281 294 312 325 321 333 343 343
238 242 241 241 239 232 229 231 238 240 243 248 252 253 243 240 239 239 244 241 239 237 234 238 237 240 248 249 249 256 267 281 302 316 326 344 355 14
237 238 244 243 241 242 238 233 234 240 237 235 247 248 240 244 237 236 241 239 235 233 230 230 229 226 234 242 247 248 257 266 290 311 314 356 15 56
237 239 243 241 244 242 242 239 232 234 236 232 239 241 233 234 229 235 238 240 235 230 230 225 220 218 227 237 248 242 247 249 267 273 269 230 133 103
239 240 242 241 244 244 242 241 232 230 230 235 235 235 228 230 233 237 229 235 234 230 227 222 212 211 218 239 241 236 238 235 241 236 226 193 160 117
238 240 242 244 246 246 243 242 235 227 229 232 232 230 224 225 230 232 234 235 235 232 223 217 207 213 222 234 236 229 227 227 230 223 216 206 196 255
239 241 242 244 246 246 245 245 243 230 228 229 234 235 237 237 234 234 233 232 224 226 224 219 215 218 217 230 232 224 220 219 225 223 221 225 241 273
242 241 242 243 244 244 243 241 238 240 243 243 240 241 243 250 249 237 235 238 233 224 220 221 219 219 220 224 231 219 216 219 221 225 230 239 254 269
243 243 242 245 246 245 244 241 238 239 242 246 247 248 257 256 257 255 246 234 229 228 228 221 219 219 221 224 224 221 216 219 222 226 234 246 256 268
243 242 243 244 244 241 241 242 236 240 243 246 245 247 251 254 252 243 233 230 223 222 217 217 218 215 221 226 225 220 219 219 225 228 235 244 253 261
241 242 243 246 246 246 246 245 243 243 243 240 239 242 243 246 250 255 253 237 224 215 216 213 212 212 213 227 224 224 223 222 225 230 237 244 250 254
243 243 243 244 249 251 250 253 250 247 246 243 241 241 238 239 243 241 237 236 231 222 225 214 212 213 212 221 223 221 222 224 227 231 238 243 247 251
244 246 247 249 249 251 251 252 251 248 245 242 236 234 232 232 235 232 230 230 231 234 225 224 221 220 214 216 214 219 219 220 224 228 234 238 243 245
254 256 254 258 255 254 252 250 247 243 240 235 233 233 232 233 231 224 222 223 225 224 223 227 225 221 223 226 224 220 215 219 222 226 228 234 238 247
252 260 257 255 255 253 248 246 246 243 239 234 233 232 227 224 220 220 218 215 212 212 218 219 209 217 220 227 225 226 223 215 223 222 229 236 241 245
247 250 252 250 250 247 244 241 240 236 234 228 226 224 221 217 217 217 216 212 209 206 201 207 212 221 220 224 224 224 224 216 219 218 222 230 237 244
250 253 253 246 248 250 244 239 236 233 228 225 222 221 218 217 216 215 215 213 208 206 209 206 207 202 206 213 224 225 215 218 217 218 221 227 235 243
258 257 255 255 250 246 245 240 236 232 227 223 221 218 218 217 216 214 212 208 210 208 210 206 205 203 199 200 208 215 219 215 219 220 224 228 234 239
268 257 257 255 253 246 242 238 236 230 224 221 220 220 219 219 215 216 216 211 209 209 207 210 210 211 211 213 206 208 213 220 220 224 226 222 227 231
316 277 262 260 258 256 249 243 234 225 222 217 216 216 217 217 216 218 215 211 210 208 208 212 216 216 216 212 216 212 215 220 228 227 225 227 233 239
337 319 283 272 271 255 250 243 238 230 224 210 214 216 217 218 216 214 213 211 207 209 211 215 211 208 200 207 216 214 214 216 223 225 228 233 240 245
328 327 324 297 277 273 263 258 258 248 233 216 217 214 218 213 213 214 210 205 206 209 212 208 204 201 201 204 214 216 215 216 221 225 230 235 245 247
Wind_Speed_850mb
89 85 88 71 73 79 70 68 68 57 62 60 54 62 69 75 74 76 75 72 71 66 56 47 38 33 30 26 23 21 18 17 18 20 22 22 21 18
98 93 93 92 82 73 77 76 76 74 68 72 67 58 58 76 76 80 83 80 75 74 63 55 44 36 34 29 26 23 18 17 16 17 17 18 18 12
102 101 99 99 98 97 77 82 82 84 82 64 63 60 58 74 80 86 86 76 75 72 66 61 50 38 36 32 29 23 19 17 14 14 13 11 8 8
108 105 105 98 100 100 100 92 90 90 88 83 82 82 72 76 78 84 82 76 73 72 70 66 57 43 38 35 31 25 21 16 13 9 8 5 3 8
104 106 106 101 101 100 100 100 96 92 86 88 94 92 79 85 80 86 82 81 74 71 73 67 52 41 38 34 36 29 25 16 12 7 4 2 2 6
99 101 101 102 103 102 101 102 96 93 93 97 95 93 91 93 89 91 86 87 82 72 70 64 53 46 40 40 43 35 28 18 13 10 8 7 6 5
100 102 101 102 100 100 101 100 100 95 100 103 103 100 97 100 103 99 95 89 81 77 65 64 55 50 46 46 49 40 31 22 18 15 14 11 6 3
100 102 103 104 105 104 103 103 100 106 112 112 115 113 108 104 103 106 103 98 87 78 57 63 61 52 49 50 51 42 34 27 23 21 19 14 11 10
97 99 102 106 107 105 106 104 105 108 118 113 115 117 109 107 102 104 107 109 102 83 69 71 65 59 51 54 57 46 40 34 30 26 23 20 16 15
95 94 95 94 98 99 101 105 108 112 117 119 114 97 83 88 91 94 102 100 89 72 68 77 68 62 64 63 57 51 46 39 34 32 27 23 21 19
99 95 98 98 96 95 97 96 107 113 116 115 113 104 91 86 83 88 94 96 88 88 81 69 70 72 68 65 57 51 47 42 40 34 29 25 23 22
104 105 105 104 102 96 92 92 97 105 116 113 105 97 98 89 80 70 76 94 99 86 94 86 74 77 63 73 65 60 53 50 44 39 32 28 27 24
101 107 110 108 109 103 94 93 87 87 105 112 107 106 99 89 84 74 74 81 100 98 91 98 85 77 67 43 73 67 60 54 49 43 38 34 30 25
103 105 104 102 101 99 91 91 86 86 85 109 115 112 104 93 85 79 77 82 91 92 83 60 81 81 79 65 42 65 66 60 53 49 42 37 33 28
88 93 90 84 90 90 89 91 90 90 87 102 116 115 104 89 83 84 85 88 88 84 75 67 66 58 59 67 65 50 63 62 57 51 44 39 32 30
80 89 89 80 83 89 93 99 98 94 94 99 109 105 98 92 88 93 94 94 93 86 76 70 54 55 58 69 64 53 48 49 51 52 43 37 33 31
91 88 98 98 94 96 98 101 103 100 99 101 105 106 101 96 95 99 101 102 102 95 87 70 63 59 56 58 60 58 49 48 45 39 44 39 36 33
83 90 95 104 101 106 102 104 106 105 102 102 102 100 98 98 100 106 107 109 106 98 89 86 77 64 55 51 55 54 49 49 47 42 41 39 38 35
68 79 86 90 111 111 111 113 113 111 107 105 103 99 98 101 108 113 110 106 96 97 91 77 77 75 71 63 54 50 50 52 48 44 40 39 34 33
44 59 70 77 87 97 103 116 117 116 113 106 101 97 98 103 111 112 110 102 101 97 89 81 82 82 76 70 65 61 55 49 47 41 41 38 38 39
32 42 56 59 67 77 91 93 100 119 119 115 106 99 95 93 96 99 97 101 103 97 90 86 84 76 65 54 51 58 61 55 46 39 38 41 42 39
36 30 39 44 44 51 60 73 85 103 103 103 92 85 88 84 90 92 98 102 100 91 81 80 71 63 58 60 59 56 57 61 56 45 42 43 36 33
36 43 28 29 32 34 33 51 59 78 98 71 73 75 74 78 82 84 93 91 87 78 82 73 61 60 63 64 57 50 48 52 52 51 46 41 39 38
Wind_Direction_850mb
234 235 226 224 232 230 229 235 237 238 240 241 244 239 232 236 240 244 245 249 251 251 249 253 253 256 260 261 263 273 285 306 316 327 332 327 333 336
239 236 238 233 229 230 229 235 239 243 244 251 253 252 246 238 241 243 246 243 245 244 241 245 244 249 254 253 255 264 281 294 312 325 321 333 343 343
238 242 241 241 239 232 229 231 238 240 243 248 252 253 243 240 239 239 244 241 239 237 234 238 237 240 248 249 249 256 267 281 302 316 326 344 355 14
237 238 244 243 241 242 238 233 234 240 237 235 247 248 240 244 237 236 241 239 235 233 230 230 229 226 234 242 247 248 257 266 290 311 314 356 15 56
237 239 243 241 244 242 242 239 232 234 236 232 239 241 233 234 229 235 238 240 235 230 230 225 220 218 227 237 248 242 247 249 267 273 269 230 133 103
239 240 242 241 244 244 242 241 232 230 230 235 235 235 228 230 233 237 229 235 234 230 227 222 212 211 218 239 241 236 238 235 241 236 226 193 160 117
238 240 242 244 246 246 243 242 235 227 229 232 232 230 224 225 230 232 234 235 235 232 223 217 207 213 222 234 236 229 227 227 230 223 216 206 196 255
239 241 242 244 246 246 245 245 243 230 228 229 234 235 237 237 234 234 233 232 224 226 224 219 215 218 217 230 232 224 220 219 225 223 221 225 241 273
242 241 242 243 244 244 243 241 238 240 243 243 240 241 243 250 249 237 235 238 233 224 220 221 219 219 220 224 231 219 216 219 221 225 230 239 254 269
243 243 242 245 246 245 244 241 238 239 242 246 247 248 257 256 257 255 246 234 229 228 228 221 219 219 221 224 224 221 216 219 222 226 234 246 256 268
243 242 243 244 244 241 241 242 236 240 243 246 245 247 251 254 252 243 233 230 223 222 217 217 218 215 221 226 225 220 219 219 225 228 235 244 253 261
241 242 243 246 246 246 246 245 243 243 243 240 239 242 243 246 250 255 253 237 224 215 216 213 212 212 213 227 224 224 223 222 225 230 237 244 250 254
243 243 243 244 249 251 250 253 250 247 246 243 241 241 238 239 243 241 237 236 231 222 225 214 212 213 212 221 223 221 222 224 227 231 238 243 247 251
244 246 247 249 249 251 251 252 251 248 245 242 236 234 232 232 235 232 230 230 231 234 225 224 221 220 214 216 214 219 219 220 224 228 234 238 243 245
254 256 254 258 255 254 252 250 247 243 240 235 233 233 232 233 231 224 222 223 225 224 223 227 225 221 223 226 224 220 215 219 222 226 228 234 238 247
252 260 257 255 255 253 248 246 246 243 239 234 233 232 227 224 220 220 218 215 212 212 218 219 209 217 220 227 225 226 223 215 223 222 229 236 241 245
247 250 252 250 250 247 244 241 240 236 234 228 226 224 221 217 217 217 216 212 209 206 201 207 212 221 220 224 224 224 224 216 219 218 222 230 237 244
250 253 253 246 248 250 244 239 236 233 228 225 222 221 218 217 216 215 215 213 208 206 209 206 207 202 206 213 224 225 215 218 217 218 221 227 235 243
258 257 255 255 250 246 245 240 236 232 227 223 221 218 218 217 216 214 212 208 210 208 210 206 205 203 199 200 208 215 219 215 219 220 224 228 234 239
268 257 257 255 253 246 242 238 236 230 224 221 220 220 219 219 215 216 216 211 209 209 207 210 210 211 211 213 206 208 213 220 220 224 226 222 227 231
316 277 262 260 258 256 249 243 234 225 222 217 216 216 217 217 216 218 215 211 210 208 208 212 216 216 216 212 216 212 215 220 228 227 225 227 233 239
337 319 283 272 271 255 250 243 238 230 224 210 214 216 217 218 216 214 213 211 207 209 211 215 211 208 200 207 216 214 214 216 223 225 228 233 240 245
328 327 324 297 277 273 263 258 258 248 233 216 217 214 218 213 213 214 210 205 206 209 212 208 204 201 201 204 214 216 215 216 221 225 230 235 245 247